Weather History for Clarksburg, WV

Change the Weather History Date:

Monday, September 16, 2013

  Actual Average Record
Temperature  
Mean Temperature 60 °F -  
Max Temperature 68 °F 76 °F 94 °F (1930)
Min Temperature 55 °F 53 °F 35 °F (1966)
Degree Days  
Heating Degree Days 4    
Growing Degree Days 10 (Base 50)    
Moisture  
Dew Point 55 °F    
Average Humidity 85    
Maximum Humidity 94    
Minimum Humidity 59    
Precipitation  
Precipitation 0.25 in - - ()
Sea Level Pressure  
Sea Level Pressure 30.16 in    
Wind  
Wind Speed 4 mph (North)    
Max Wind Speed 10 mph    
Max Gust Speed -    
Visibility 7 miles    
Events Rain    
Averages and records for this station are not official NWS values.
T = Trace of Precipitation, MM = Missing Value Source: NWS Daily Summary

Daily Weather History Graph

Daily Weather History Graph

Search for Another Location

Airport:

Trip Planner

Search our weather history database for the weather conditions in past years. The results will help you decide how hot, cold, wet, or windy it might be!

Date:

Astronomy

Sep. 16, 2013 Rise Set
Actual Time 7:03 AM EDT 7:27 PM EDT
Civil Twilight 6:36 AM EDT 7:54 PM EDT
Nautical Twilight 6:04 AM EDT 8:25 PM EDT
Astronomical Twilight 5:32 AM EDT 8:57 PM EDT
Moon 5:34 PM EDT (9/16) 3:48 AM EDT (9/16)
Length of Visible Light 13h 17m
Length of Day
12h 24m
Waxing Gibbous, 90% of the Moon is Illuminated
Sep 16
Waxing Gibbous
Sep 19
Full
Sep 26
Last Quarter
Oct 4
New
Oct 11
First Quarter

Hourly Weather History & Observations

Time (EDT) Temp. Dew Point Humidity Pressure Visibility Wind Dir Wind Speed Gust Speed Precip Events Conditions
12:53 AM 59.0 °F 55.9 °F 90% 30.06 in 10.0 mi Calm Calm - N/A   Mostly Cloudy
1:53 AM 60.1 °F 55.9 °F 86% 30.06 in 10.0 mi Calm Calm - N/A   Overcast
2:53 AM 62.1 °F 57.0 °F 84% 30.05 in 10.0 mi Calm Calm - N/A   Overcast
3:53 AM 62.1 °F 57.0 °F 84% 30.04 in 10.0 mi Calm Calm - N/A   Overcast
4:39 AM 62.6 °F 57.2 °F 82% 30.10 in 10.0 mi NNW 8.1 mph - 0.00 in   Overcast
4:53 AM 61.0 °F 57.9 °F 90% 30.08 in 5.0 mi NNW 10.4 mph - 0.02 in Rain Rain
5:05 AM 60.8 °F 57.2 °F 88% 30.11 in 4.0 mi North 9.2 mph - 0.03 in Rain Rain
5:12 AM 60.8 °F 57.2 °F 88% 30.12 in 4.0 mi North 9.2 mph - 0.06 in Rain Heavy Rain
5:19 AM 59.0 °F 57.2 °F 94% 30.12 in 4.0 mi North 9.2 mph - 0.07 in Rain Rain
5:26 AM 59.0 °F 57.2 °F 94% 30.13 in 5.0 mi NNW 5.8 mph - 0.09 in Rain Rain
5:39 AM 57.2 °F 55.4 °F 94% 30.13 in 5.0 mi North 8.1 mph - 0.11 in Rain Light Rain
5:51 AM 57.2 °F 55.4 °F 94% 30.14 in 3.0 mi North 10.4 mph - 0.13 in Rain Rain
5:53 AM 57.9 °F 55.0 °F 90% 30.11 in 4.0 mi NNE 9.2 mph - 0.13 in Rain Rain
6:18 AM 57.2 °F 55.4 °F 94% 30.16 in 3.0 mi North 6.9 mph - 0.02 in Rain Light Rain
6:31 AM 57.2 °F 55.4 °F 94% 30.15 in 3.0 mi NE 4.6 mph - 0.04 in Rain Rain
6:53 AM 57.0 °F 55.0 °F 93% 30.12 in 3.0 mi Calm Calm - 0.06 in Rain Rain
7:26 AM 57.2 °F 55.4 °F 94% 30.17 in 3.0 mi Calm Calm - 0.02 in Rain Light Rain
7:42 AM 57.2 °F 55.4 °F 94% 30.17 in 2.5 mi NW 3.5 mph - 0.03 in Rain Light Rain
7:47 AM 57.2 °F 55.4 °F 94% 30.16 in 3.0 mi Calm Calm - 0.03 in Rain Light Rain
7:53 AM 57.0 °F 55.0 °F 93% 30.14 in 3.0 mi Calm Calm - 0.03 in Rain Light Rain
8:05 AM 57.2 °F 55.4 °F 94% 30.17 in 2.5 mi NNE 3.5 mph - 0.01 in Rain Light Rain
8:53 AM 57.9 °F 55.0 °F 90% 30.15 in 2.5 mi Calm Calm - 0.01 in   Overcast
9:22 AM 57.2 °F 55.4 °F 94% 30.18 in 5.0 mi Calm Calm - N/A   Overcast
9:53 AM 59.0 °F 55.0 °F 87% 30.18 in 6.0 mi NNW 3.5 mph - N/A   Overcast
10:53 AM 60.1 °F 55.0 °F 83% 30.20 in 10.0 mi NNE 6.9 mph - N/A   Overcast
11:12 AM 60.8 °F 55.4 °F 82% 30.22 in 10.0 mi NE 4.6 mph - N/A   Overcast
11:53 AM 62.1 °F 55.9 °F 80% 30.20 in 10.0 mi Variable 3.5 mph - N/A   Overcast
12:53 PM 63.0 °F 54.0 °F 72% 30.20 in 10.0 mi NNE 6.9 mph - N/A   Overcast
1:53 PM 64.0 °F 53.1 °F 67% 30.21 in 10.0 mi NNW 5.8 mph - N/A   Overcast
2:53 PM 64.0 °F 53.1 °F 67% 30.20 in 10.0 mi NNW 5.8 mph - N/A   Overcast
3:53 PM 64.9 °F 52.0 °F 63% 30.19 in 10.0 mi NNW 4.6 mph - N/A   Mostly Cloudy
4:53 PM 64.0 °F 53.1 °F 67% 30.19 in 10.0 mi North 4.6 mph - N/A   Mostly Cloudy
5:53 PM 66.9 °F 52.0 °F 59% 30.19 in 10.0 mi West 3.5 mph - N/A   Partly Cloudy
6:53 PM 64.9 °F 52.0 °F 63% 30.20 in 10.0 mi West 3.5 mph - N/A   Clear
7:53 PM 59.0 °F 53.1 °F 81% 30.22 in 10.0 mi Calm Calm - N/A   Clear
8:53 PM 57.0 °F 54.0 °F 89% 30.24 in 10.0 mi Calm Calm - N/A   Clear
9:53 PM 55.0 °F 53.1 °F 93% 30.25 in 7.0 mi Calm Calm - N/A   Clear
10:53 PM 57.0 °F 54.0 °F 89% 30.26 in 9.0 mi North 3.5 mph - N/A   Overcast
11:53 PM 55.9 °F 53.1 °F 90% 30.27 in 10.0 mi NNE 3.5 mph - N/A   Clear